ONEWEB-0067 (45425 NORAD) Tracking and Keplerian Element Data

This shows tracking and keplerian element data for the satellite.

Feedback or suggestion? Click here.




ElementValue
Catalog45425
NameONEWEB-0067
Epoch Orbit159
Epoch Day93.91667824
Epoch Year2020
RAAN134.5735
Inclination87.4008
Eccentricity0.0022581
Argument of Perigee245.6055
Mean Anonmoly42.349
Mean Motion15.39192857
Decay Rate0.00039015
L11 45425U 20020B 20093.91667824 .00039015 00000-0 99181-3 0 9990
L22 45425 87.4008 134.5735 0022581 245.6055 42.3490 15.39192857 1599

Live tracking and technical data element details for ONEWEB-0067 (NORAD 45425). ONEWEB-0067 can be tracked NOW for your location showing map with azimuth and elevation plus other details from your city location.

Track the satellite on the map from your city or location and see movement details for azimuth, elevation, latitude, longitude, range, height, and movement on the map or in text.







IsCatalogInMostPopularTable: catalog: 45425, numindb: 3
Update: records affected: 1



GetName: 45425 ONEWEB-0067

Hit Count: updated at: Tue, 07 Apr 2020 17:05:06 GMT